Regional Weather Roundup
Issued by NWS

Home | Current Version | Previous Version | Graphics & Text | Print | Product List | Glossary On
Versions: 1 2 3 4 5 6 7 8 9 10 11 12 13 14 15 16 17 18 19 20 21 22 23 24 25 26 27 28 29 30 31 32 33 34 35 36 37 38 39 40 41 42 43 44 45 46 47 48 49 50
000
ASUS43 KLSX 220207
RWRMO

WEATHER SUMMARY FOR MISSOURI
NATIONAL WEATHER SERVICE SPRINGFIELD MO
900 PM CDT SUN SEP 21 2014

NOTE: "FAIR" INDICATES FEW OR NO CLOUDS BELOW 12,000 FEET WITH NO
       SIGNIFICANT WEATHER AND/OR OBSTRUCTIONS TO VISIBILITY.
       CURRENT SKY AND/OR WEATHER CONDITIONS ARE NOT AVAILABLE FOR
       CHILLICOTHE AND FARMINGTON.

MOZ001>031-035>038-043-044-053-054-220300-
...NORTHERN AND WESTERN MISSOURI...

CITY           SKY/WX    TMP DP  RH WIND       PRES   REMARKS
KANSAS CTY INT CLEAR     60  49  66 N8        30.22R
KANSAS C DTWN  CLEAR     64  50  60 N6        30.20R
LEE`S SUMMIT   CLEAR     63  48  58 N5        30.21R
ST JOSEPH      CLEAR     54  50  86 N6        30.22R
CHILLICOTHE      N/A     58  52  80 CALM      30.21R
KIRKSVILLE     CLEAR     56  50  80 NW5       30.20R

$$
MOZ066>068-077>081-088>096-101>105-220300-
...SOUTHWEST MISSOURI...

CITY           SKY/WX    TMP DP  RH WIND       PRES   REMARKS
SPRINGFIELD    CLEAR     63  50  62 N8        30.17R
JOPLIN         CLEAR     66  50  56 MISG      30.18R

$$
MOZ032>034-039>042-045>050-055>058-069>072-220300-
...CENTRAL MISSOURI...

CITY           SKY/WX    TMP DP  RH WIND       PRES   REMARKS
COLUMBIA       CLEAR     59  50  72 N7        30.18R
JEFFERSON CITY CLEAR     64  49  57 N5        30.16R
ROLLA          CLEAR     61  48  62 N8        30.15R
SEDALIA        CLEAR     59  50  72 N8        30.19R
WHITEMAN AFB   CLEAR     59  50  72 N6        30.19R HAZE
OSAGE BEACH    CLEAR     63  48  59 N5        30.17R

$$
MOZ051-052-059>065-220300-
...EAST CENTRAL MISSOURI...

CITY           SKY/WX    TMP DP  RH WIND       PRES   REMARKS
ST LOUIS INTL  CLEAR     64  51  62 NW6       30.14R
SPIRIT OF STL  CLEAR     63  50  62 NW3       30.13R
ST CHARLES     CLEAR     61  52  72 N8        30.13R

$$
MOZ072>076-082>087-097>100-106>115-220300-
...SOUTH CENTRAL AND SOUTHEAST MISSOURI...

CITY           SKY/WX    TMP DP  RH WIND       PRES   REMARKS
CAPE GIRARDEAU CLEAR     66  50  56 N8        30.08R
FARMINGTON     CLEAR     64  46  52 N5        30.14R
POPLAR BLUFF   CLEAR     63  51  65 N6        30.07R
WEST PLAINS    CLEAR     63  49  60 NW6       30.15R

$$


USA.gov is the U.S. government's official web portal to all federal, state and local government web resources and services.